Wind_Speed
22 22 22 23 23 23 23 23 23 24 24 25 26 26 27 28 28 29 29 30 31 31 31 32 32 32 33 33 33 33 33 33 33 33 33 32 32 31 30 30 29 28 27
25 24 24 24 24 24 24 25 25 25 26 27 28 28 29 30 30 31 31 32 33 34 34 34 35 35 35 36 36 36 36 36 36 36 36 35 35 34 33 33 32 31 30
27 26 26 26 26 26 26 26 27 27 28 29 29 30 30 31 32 32 33 35 35 36 37 37 37 38 38 39 39 39 39 39 39 38 38 38 37 37 36 36 36 35 33
29 28 28 28 28 28 28 28 28 29 29 30 31 31 32 33 33 34 35 36 37 38 39 39 40 40 40 41 41 41 41 41 41 40 40 40 40 39 39 39 38 37 37
31 30 30 30 30 29 29 30 30 31 31 32 33 33 34 34 35 36 37 38 39 40 40 41 41 42 42 43 43 43 43 43 42 42 42 42 42 42 41 41 40 40 39
33 32 32 32 32 31 31 32 32 32 33 34 34 35 36 36 37 38 39 40 41 41 42 43 43 44 44 44 44 44 44 44 44 44 44 44 44 44 44 43 43 42 42
35 34 34 34 34 33 33 34 34 34 35 36 37 37 37 38 38 40 41 42 42 43 43 44 44 45 44 44 45 45 45 45 45 45 45 46 46 46 45 45 45 44 44
37 37 36 36 36 36 35 35 36 36 37 38 39 40 39 39 40 41 42 43 44 44 44 45 45 45 45 45 45 46 46 46 46 46 47 47 47 47 46 45 46 46 45
40 39 38 38 38 37 37 37 38 39 39 40 41 42 42 41 42 42 43 44 44 44 45 46 46 46 46 46 47 46 46 46 47 47 47 48 46 46 47 48 48 47 47
42 41 40 40 39 39 39 40 40 41 42 42 43 44 44 45 45 44 43 44 44 44 45 45 45 46 46 47 47 47 47 47 47 48 47 47 48 46 46 48 48 48 48
43 43 42 42 41 41 41 42 42 43 43 44 44 45 45 46 46 47 45 44 44 44 44 44 45 45 46 47 47 48 48 48 48 49 48 47 47 47 47 47 46 46 45
45 44 44 43 43 43 43 43 43 44 45 45 46 46 46 47 46 47 46 45 45 44 44 44 45 46 46 46 46 47 47 47 47 48 47 46 46 47 46 45 44 44 43
46 46 45 45 45 45 45 45 45 45 46 47 47 47 47 47 47 47 47 45 45 44 44 44 45 46 46 47 47 48 48 48 47 47 46 46 45 45 44 43 42 42 42
47 47 47 46 46 47 47 47 46 47 47 47 47 47 47 47 47 47 46 45 45 44 44 44 45 46 46 47 47 47 47 47 47 47 47 46 45 44 42 41 42 42 42
49 48 48 48 48 48 48 48 48 48 48 47 47 47 47 47 46 46 45 45 45 44 44 44 45 45 45 46 46 46 46 46 46 46 45 45 44 43 44 43 43 43 43
50 49 49 49 49 49 49 49 48 48 47 47 47 47 46 46 45 45 45 44 44 44 44 44 43 44 44 45 45 45 45 45 45 43 43 43 42 43 43 43 43 44 44
50 50 49 49 49 49 49 48 48 48 47 46 46 46 45 45 44 44 44 44 44 44 44 43 43 43 43 44 44 44 43 43 43 43 43 42 42 43 43 43 43 43 42
50 49 49 49 48 48 48 47 47 47 46 46 45 44 44 43 43 43 42 42 43 43 43 42 43 42 43 43 42 42 42 42 42 41 41 41 42 43 44 44 44 44 43
48 47 47 46 46 46 45 45 45 44 44 44 43 42 42 41 41 41 41 41 42 42 42 42 42 42 42 41 41 41 41 41 41 41 41 41 42 43 44 45 45 45 45
46 45 45 45 44 44 43 43 43 43 42 41 41 40 40 40 39 39 40 41 41 41 41 41 41 41 41 41 41 41 41 41 42 42 42 43 43 44 45 45 46 46 47
44 43 43 43 43 42 42 42 41 40 39 39 38 38 38 38 38 39 39 40 40 40 40 40 41 41 41 41 41 41 42 42 42 42 42 43 44 45 45 46 47 48 48
42 42 42 41 41 41 40 39 38 37 37 37 36 36 37 37 37 38 38 39 39 39 40 40 40 41 41 41 42 42 43 43 43 43 43 44 45 45 46 46 46 46 47
41 40 40 39 38 38 37 36 36 35 35 35 35 35 36 36 37 38 38 38 39 39 39 40 40 40 41 42 43 43 44 44 43 43 44 44 45 45 46 46 46 46 46
38 38 37 36 35 35 35 34 34 34 34 34 34 35 35 36 37 37 37 37 38 38 39 40 40 41 42 42 43 43 44 44 44 45 45 45 46 46 47 47 47 46 46
34 34 34 33 33 33 33 32 33 33 33 34 34 35 35 36 36 36 36 37 37 38 39 40 41 41 42 42 43 44 44 44 45 46 46 46 46 46 46 47 48 48 48
32 32 32 31 31 31 31 32 32 32 33 33 34 35 35 35 35 36 36 37 38 39 40 40 41 42 42 43 44 45 45 46 46 46 47 47 47 47 46 47 49 50 49
Wind_Direction
275 279 282 285 287 289 290 291 292 291 291 291 291 291 292 293 294 294 294 294 294 294 294 293 293 293 293 292 292 292 292 292 291 291 291 290 290 289 289 288 287 286 285
273 276 279 281 283 286 288 288 289 289 289 290 290 290 290 292 293 294 294 293 293 293 293 293 293 292 292 292 292 292 292 291 290 290 290 289 288 287 287 286 285 283 282
272 274 277 279 281 283 285 286 287 288 288 289 289 290 291 292 292 293 294 293 293 293 293 293 293 293 293 292 292 292 291 291 290 289 289 288 288 287 285 284 283 282 280
271 273 275 278 280 282 283 285 286 287 287 288 289 289 290 291 292 293 293 293 294 294 294 294 294 294 293 292 292 292 292 291 290 290 289 289 288 287 286 284 283 281 279
269 271 273 276 279 280 282 283 284 285 286 287 288 289 290 292 292 293 293 293 294 294 294 295 294 294 293 293 292 292 292 291 291 290 289 288 287 286 285 284 282 280 279
266 269 272 275 277 279 280 281 283 284 285 286 288 290 291 292 293 293 293 294 294 294 295 295 295 294 294 294 293 293 292 292 291 290 289 288 287 286 284 282 281 279 277
265 268 270 273 276 278 279 280 281 283 285 286 288 289 291 293 293 293 293 294 294 294 294 294 295 295 294 294 294 293 293 292 291 291 290 289 287 285 284 282 280 279 277
263 265 268 271 274 276 277 278 280 282 284 286 288 289 290 291 292 293 294 294 294 294 294 294 294 294 294 294 294 294 293 293 292 292 291 290 287 285 283 282 281 279 277
261 263 266 269 271 274 275 277 279 281 284 286 288 289 290 290 290 292 293 294 294 294 294 294 294 294 295 295 295 295 294 293 292 292 292 290 288 285 282 281 280 278 276
260 263 266 268 270 272 274 276 279 281 283 285 286 288 290 291 292 292 292 293 293 293 293 293 294 295 295 295 295 294 293 293 292 291 291 289 288 287 285 283 280 279 277
260 263 265 268 269 271 273 275 278 281 283 284 286 288 290 291 293 293 293 293 293 294 293 293 294 295 295 295 295 295 293 293 292 292 291 289 287 287 286 284 281 279 278
259 261 264 266 269 271 274 275 277 280 282 284 286 288 290 291 292 293 293 293 293 293 293 293 294 294 295 295 295 295 294 293 293 292 290 290 289 288 286 285 282 279 279
259 262 264 267 269 272 274 276 278 280 283 285 287 288 290 291 292 292 293 293 293 293 293 294 294 295 295 296 296 295 294 293 293 292 291 290 290 289 286 285 282 281 279
260 262 264 267 269 272 274 276 278 280 283 285 287 288 290 291 291 292 293 293 293 294 294 295 295 295 296 296 297 297 295 294 293 293 292 290 290 289 288 286 283 283 281
259 261 264 267 270 271 273 276 278 280 283 285 286 288 289 290 291 291 292 293 294 294 295 296 296 296 297 297 297 297 296 295 293 292 292 291 288 288 287 286 285 283 280
260 262 265 267 270 272 274 276 278 281 283 284 286 288 289 290 290 291 292 293 293 295 296 296 296 296 297 298 298 298 297 295 295 294 293 292 290 290 289 288 287 284 281
261 263 265 267 269 271 274 276 279 280 282 283 285 287 288 289 289 291 292 293 294 295 296 296 297 297 298 299 299 298 298 297 296 294 293 292 291 291 290 289 288 285 281
262 264 266 268 270 272 275 277 278 279 281 283 284 286 287 288 289 290 291 293 294 295 295 296 297 298 299 300 300 299 298 298 297 295 294 293 292 291 291 290 288 286 283
263 265 267 269 271 273 275 276 277 280 281 283 284 285 287 288 289 290 292 293 294 295 295 296 297 298 299 300 300 300 299 298 298 297 296 295 293 292 291 290 288 286 283
264 266 268 270 271 273 275 277 278 280 281 282 283 285 287 288 289 291 292 293 294 295 296 297 298 299 299 299 300 300 300 299 299 298 298 296 295 293 292 290 288 286 284
265 266 268 269 271 274 276 278 279 280 281 282 284 285 287 288 290 292 293 294 295 296 297 297 298 299 299 299 300 300 301 300 300 300 299 298 297 296 293 292 290 287 285
264 266 268 269 272 274 275 277 278 280 281 282 283 285 287 289 291 292 293 294 295 297 297 298 299 300 300 300 300 300 301 301 301 301 300 299 299 297 295 293 291 289 287
263 265 268 269 271 273 274 276 277 278 280 282 284 285 288 289 290 293 293 295 296 297 298 299 300 300 301 301 301 302 302 301 300 301 300 300 300 298 297 295 293 291 289
263 265 267 269 271 272 273 275 276 278 280 282 284 286 288 290 291 293 294 296 297 297 299 300 300 301 301 302 303 303 303 302 301 301 301 301 301 300 299 297 294 292 291
263 265 267 269 270 271 272 274 276 278 280 282 284 286 289 290 292 293 294 295 297 299 300 301 301 302 303 303 304 304 303 303 302 302 302 302 302 301 300 298 296 294 293
263 265 266 268 270 271 272 274 276 278 280 282 285 287 289 290 292 294 295 296 298 300 302 302 302 303 303 305 305 304 304 303 303 302 302 303 302 301 300 299 297 296 294
Height
5862 5862 5862 5862 5862 5862 5862 5861 5861 5860 5859 5858 5857 5856 5855 5853 5852 5850 5849 5847 5845 5843 5841 5839 5838 5836 5834 5832 5830 5829 5827 5825 5824 5822 5821 5819 5818 5817 5815 5814 5813 5811 5810
5857 5858 5858 5858 5857 5857 5857 5857 5856 5855 5854 5853 5852 5851 5850 5848 5847 5845 5843 5841 5839 5837 5835 5833 5831 5829 5828 5826 5824 5822 5821 5819 5817 5815 5814 5813 5811 5810 5809 5807 5806 5805 5804
5852 5853 5853 5853 5853 5852 5852 5852 5851 5850 5849 5848 5847 5845 5844 5843 5841 5839 5837 5835 5833 5831 5829 5827 5825 5823 5821 5819 5817 5815 5813 5811 5809 5808 5806 5805 5804 5802 5801 5800 5799 5798 5797
5846 5847 5847 5847 5847 5847 5847 5846 5845 5844 5843 5842 5841 5839 5838 5837 5835 5833 5831 5828 5826 5824 5822 5820 5817 5815 5813 5811 5809 5807 5805 5803 5801 5800 5798 5796 5795 5794 5792 5791 5790 5789 5789
5840 5841 5841 5841 5841 5841 5840 5840 5839 5838 5837 5836 5834 5833 5832 5830 5828 5826 5824 5821 5819 5816 5814 5812 5809 5807 5805 5802 5800 5798 5796 5795 5793 5791 5789 5787 5785 5784 5783 5782 5781 5780 5779
5834 5834 5835 5834 5834 5834 5834 5833 5833 5831 5830 5829 5828 5827 5825 5823 5821 5819 5816 5814 5811 5808 5806 5803 5801 5798 5796 5793 5791 5789 5787 5785 5783 5781 5779 5777 5775 5773 5772 5771 5770 5769 5769
5827 5827 5828 5828 5827 5827 5827 5826 5825 5824 5823 5821 5820 5819 5818 5816 5814 5811 5808 5806 5803 5800 5797 5794 5791 5789 5786 5784 5782 5779 5777 5775 5772 5770 5768 5766 5764 5762 5761 5759 5758 5758 5757
5819 5820 5820 5820 5820 5820 5820 5819 5818 5817 5816 5814 5812 5811 5811 5810 5806 5803 5800 5797 5794 5791 5788 5785 5782 5779 5776 5774 5771 5769 5766 5764 5761 5759 5757 5754 5752 5750 5748 5747 5746 5745 5745
5811 5812 5812 5812 5812 5812 5812 5811 5810 5809 5808 5806 5804 5802 5801 5801 5799 5796 5792 5789 5785 5782 5779 5775 5772 5769 5766 5764 5761 5758 5755 5752 5750 5747 5745 5742 5740 5738 5736 5735 5733 5732 5732
5802 5803 5804 5804 5804 5804 5803 5802 5801 5800 5799 5797 5795 5793 5791 5790 5788 5787 5785 5780 5777 5773 5769 5766 5763 5760 5756 5753 5750 5747 5744 5741 5738 5736 5733 5730 5727 5725 5724 5722 5720 5719 5719
5794 5794 5795 5795 5795 5795 5794 5794 5792 5791 5790 5788 5786 5784 5782 5779 5777 5775 5774 5771 5767 5763 5760 5756 5753 5750 5746 5742 5739 5736 5732 5729 5726 5723 5720 5717 5715 5713 5711 5709 5707 5706 5706
5784 5785 5785 5786 5786 5786 5785 5784 5783 5782 5780 5779 5776 5774 5772 5770 5767 5764 5762 5760 5757 5754 5750 5746 5743 5739 5735 5732 5728 5725 5721 5718 5714 5711 5708 5705 5703 5700 5699 5697 5695 5694 5694
5775 5775 5776 5776 5776 5776 5775 5774 5773 5772 5770 5769 5767 5764 5762 5759 5756 5754 5751 5748 5746 5744 5740 5736 5732 5728 5725 5721 5717 5713 5709 5706 5703 5699 5696 5693 5690 5688 5686 5685 5683 5682 5682
5765 5765 5766 5766 5766 5766 5765 5764 5763 5762 5760 5758 5756 5754 5751 5749 5746 5743 5740 5737 5735 5733 5730 5726 5722 5718 5714 5710 5706 5702 5698 5694 5691 5687 5684 5681 5679 5677 5675 5673 5672 5671 5670
5754 5755 5755 5756 5755 5755 5754 5753 5752 5751 5750 5748 5746 5743 5741 5738 5735 5732 5729 5726 5724 5722 5719 5715 5711 5707 5702 5699 5695 5691 5686 5682 5679 5676 5672 5670 5667 5665 5664 5662 5660 5659 5659
5743 5744 5744 5745 5745 5744 5743 5743 5742 5740 5739 5737 5735 5733 5730 5727 5724 5721 5719 5716 5712 5710 5707 5704 5700 5696 5692 5688 5684 5679 5675 5671 5668 5664 5661 5659 5656 5654 5652 5650 5648 5647 5646
5732 5733 5734 5734 5734 5734 5733 5732 5731 5730 5728 5726 5724 5722 5719 5717 5714 5711 5708 5705 5702 5699 5696 5693 5689 5685 5681 5677 5673 5668 5664 5660 5656 5653 5650 5647 5644 5642 5640 5638 5636 5635 5634
5721 5722 5722 5723 5723 5723 5722 5721 5720 5719 5717 5715 5713 5711 5709 5706 5703 5701 5698 5694 5691 5688 5685 5682 5678 5674 5670 5666 5662 5657 5653 5649 5646 5642 5639 5636 5633 5631 5628 5626 5624 5622 5621
5710 5711 5711 5712 5712 5712 5711 5710 5709 5708 5706 5704 5702 5700 5698 5696 5693 5690 5687 5684 5681 5677 5674 5671 5667 5663 5659 5655 5651 5647 5643 5639 5635 5631 5627 5624 5621 5618 5616 5613 5611 5608 5607
5699 5700 5701 5701 5701 5701 5700 5699 5698 5697 5695 5694 5692 5690 5688 5685 5683 5680 5677 5674 5670 5667 5663 5660 5656 5653 5649 5645 5641 5637 5633 5628 5624 5620 5616 5612 5609 5606 5603 5600 5597 5594 5592
5689 5689 5690 5690 5690 5690 5690 5689 5688 5686 5685 5684 5682 5680 5678 5676 5673 5670 5667 5664 5660 5657 5653 5649 5646 5642 5638 5634 5630 5626 5621 5617 5613 5609 5604 5600 5597 5593 5589 5586 5582 5579 5577
5678 5679 5680 5680 5680 5680 5679 5678 5677 5676 5675 5674 5672 5670 5668 5666 5663 5660 5657 5653 5650 5647 5643 5639 5635 5631 5627 5623 5619 5615 5610 5606 5601 5598 5593 5588 5584 5579 5575 5571 5568 5565 5562
5668 5669 5669 5670 5670 5669 5669 5668 5667 5667 5665 5664 5663 5661 5658 5656 5653 5650 5647 5643 5640 5636 5633 5629 5625 5621 5617 5613 5608 5603 5598 5593 5589 5585 5580 5575 5570 5566 5561 5557 5554 5550 5547
5658 5659 5659 5660 5660 5660 5659 5659 5658 5657 5656 5655 5653 5651 5649 5646 5644 5641 5637 5634 5630 5627 5623 5619 5615 5610 5606 5601 5596 5592 5586 5581 5576 5572 5568 5563 5557 5552 5547 5543 5539 5535 5532
5649 5649 5650 5650 5650 5650 5650 5650 5649 5648 5647 5646 5644 5642 5639 5637 5634 5631 5628 5624 5621 5617 5612 5608 5604 5599 5594 5590 5585 5580 5574 5570 5564 5559 5554 5550 5545 5540 5534 5528 5524 5520 5516
5640 5640 5641 5641 5641 5641 5641 5641 5640 5639 5638 5636 5635 5633 5630 5627 5624 5621 5618 5615 5611 5607 5602 5598 5593 5588 5583 5578 5573 5568 5562 5557 5551 5546 5541 5537 5531 5526 5522 5515 5509 5504 5500